Tracking 30922 objects as of 2-Jul-2025
HD Live streaming from Space Station
objects crossing your sky now

CHINASAT 2D

Track CHINASAT 2D now!


NORAD ID: 43920
Int'l Code: 2019-001A
Perigee: 35,786.4 km
Apogee: 35,801.2 km
Inclination: 0.0 °
Period: 1,436.1 minutes
Semi major axis: 42164 km
RCS: Unknown
Launch date: January 10, 2019
Source: People's Republic of China (PRC)
Launch site: Xichang Space Center, China (XSC)
Your satellite tracking list
COSMOS 1275 DEB
Track 1 satellite(s)




NASA's NSSDC Master Catalog

Two Line Element Set (TLE):
1 43920U 19001A   25182.53750522 -.00000334  00000-0  00000-0 0  9997
2 43920   0.0402 134.8408 0001758  64.3014  44.2132  1.00271617 50560
Source of the keplerian elements: AFSPC